;H (mm);Q (m3/s)
;;
20/11/2013 01:30;0.00;0.07
20/11/2013 01:45;0.01;0.07
20/11/2013 02:00;0.10;0.07
20/11/2013 02:15;0.12;0.07
20/11/2013 02:30;0.03;0.07
20/11/2013 02:45;0.23;0.07
20/11/2013 03:00;0.54;0.07
20/11/2013 03:15;0.36;0.08
20/11/2013 03:30;0.34;0.07
20/11/2013 03:45;0.38;0.07
20/11/2013 04:00;0.08;0.07
20/11/2013 04:15;0.15;0.07
20/11/2013 04:30;0.71;0.07
20/11/2013 04:45;0.12;0.07
20/11/2013 05:00;1.20;0.08
20/11/2013 05:15;0.33;0.08
20/11/2013 05:30;0.66;0.07
20/11/2013 05:45;1.49;0.07
20/11/2013 06:00;0.25;0.07
20/11/2013 06:15;1.46;0.08
20/11/2013 06:30;1.41;0.08
20/11/2013 06:45;1.36;0.07
20/11/2013 07:00;3.83;0.08
20/11/2013 07:15;6.54;0.07
20/11/2013 07:30;3.35;0.07
20/11/2013 07:45;6.52;0.07
20/11/2013 08:00;1.14;0.07
20/11/2013 08:15;1.32;0.19
20/11/2013 08:30;0.04;1.05
20/11/2013 08:45;0.00;7.76
20/11/2013 09:00;0.00;22.32
20/11/2013 09:15;0.00;25.28
20/11/2013 09:30;0.00;14.60
20/11/2013 09:45;0.00;9.23
20/11/2013 10:00;0.00;6.84
20/11/2013 10:15;0.00;5.39
20/11/2013 10:30;0.00;8.46
20/11/2013 10:45;0.00;8.23
20/11/2013 11:00;0.00;7.04
20/11/2013 11:15;0.00;7.11
20/11/2013 11:30;0.00;6.15
20/11/2013 11:45;0.00;6.36
20/11/2013 12:00;0.00;4.89
20/11/2013 12:15;0.00;5.19
20/11/2013 12:30;0.00;4.47
20/11/2013 12:45;0.00;4.22
20/11/2013 13:00;0.00;3.82
20/11/2013 13:15;0.00;3.66
20/11/2013 13:30;0.00;3.36
20/11/2013 13:45;0.00;3.33
20/11/2013 14:00;0.00;3.04
20/11/2013 14:15;0.00;2.88
20/11/2013 14:30;0.00;2.89
20/11/2013 14:45;0.00;2.70
20/11/2013 15:00;0.00;2.54
20/11/2013 15:15;0.00;2.47
20/11/2013 15:30;0.00;2.44
20/11/2013 15:45;0.00;2.28
20/11/2013 16:00;0.00;2.30
20/11/2013 16:15;0.00;2.24
20/11/2013 16:30;0.00;2.14
20/11/2013 16:45;0.00;2.05
20/11/2013 17:00;0.00;2.04
20/11/2013 17:15;0.00;1.94
20/11/2013 17:30;0.00;1.89
20/11/2013 17:45;0.00;1.84
20/11/2013 18:00;0.00;1.78
20/11/2013 18:15;0.00;1.76
20/11/2013 18:30;0.00;1.70
20/11/2013 18:45;0.00;1.66
20/11/2013 19:00;0.00;1.62
20/11/2013 19:15;0.00;1.58
20/11/2013 19:30;0.00;1.55
20/11/2013 19:45;0.00;1.51
20/11/2013 20:00;0.00;1.47
20/11/2013 20:15;0.00;1.44
20/11/2013 20:30;0.00;1.40
20/11/2013 20:45;0.00;1.36
20/11/2013 21:00;0.00;1.34
20/11/2013 21:15;0.00;1.30
20/11/2013 21:30;0.00;1.27
20/11/2013 21:45;0.00;1.27
20/11/2013 22:00;0.00;1.22
20/11/2013 22:15;0.00;1.20
20/11/2013 22:30;0.00;1.17
20/11/2013 22:45;0.00;1.16
20/11/2013 23:00;0.00;1.14
20/11/2013 23:15;0.00;1.11
20/11/2013 23:30;0.00;1.09
20/11/2013 23:45;0.00;1.07
21/11/2013 00:00;0.00;1.06
21/11/2013 00:15;0.00;1.03
21/11/2013 00:30;0.00;1.01
21/11/2013 00:45;0.00;1.01
21/11/2013 01:00;0.00;0.97
21/11/2013 01:15;0.00;0.95
21/11/2013 01:30;0.00;0.94
21/11/2013 01:45;0.00;0.92
21/11/2013 02:00;0.00;0.90
21/11/2013 02:15;0.00;0.88
21/11/2013 02:30;0.00;0.87
21/11/2013 02:45;0.00;0.84
21/11/2013 03:00;0.00;0.84
21/11/2013 03:15;0.00;0.82
21/11/2013 03:30;0.00;0.79
21/11/2013 03:45;0.00;0.80
21/11/2013 04:00;0.00;0.77
21/11/2013 04:15;0.00;0.75
21/11/2013 04:30;0.00;0.73
21/11/2013 04:45;0.00;0.71
21/11/2013 05:00;0.00;0.70
21/11/2013 05:15;0.00;0.69
21/11/2013 05:30;0.00;0.66
21/11/2013 05:45;0.00;0.64
21/11/2013 06:00;0.00;0.63
21/11/2013 06:15;0.00;0.62
21/11/2013 06:30;0.00;0.59
21/11/2013 06:45;0.00;0.58
21/11/2013 07:00;0.00;0.56
21/11/2013 07:15;0.00;0.55
21/11/2013 07:30;0.00;0.53
21/11/2013 07:45;0.00;0.51
21/11/2013 08:00;0.00;0.47
21/11/2013 08:15;0.00;0.46
21/11/2013 08:30;0.00;0.44
21/11/2013 08:45;0.00;0.42
21/11/2013 09:00;0.00;0.40
21/11/2013 09:15;0.00;0.37
21/11/2013 09:30;0.00;0.35
21/11/2013 09:45;0.00;0.32
21/11/2013 10:00;0.00;0.31
21/11/2013 10:15;0.00;0.28
21/11/2013 10:30;0.00;0.26
21/11/2013 10:45;0.00;0.24
21/11/2013 11:00;0.00;0.22
21/11/2013 11:15;0.00;0.21
21/11/2013 11:30;0.00;0.20
21/11/2013 11:45;0.00;0.18
21/11/2013 12:00;0.00;0.16
21/11/2013 12:15;0.00;0.14
21/11/2013 12:30;0.00;0.13
21/11/2013 12:45;0.00;0.11
21/11/2013 13:00;0.00;0.10
21/11/2013 13:15;0.00;0.08
21/11/2013 13:30;0.00;0.07
21/11/2013 13:45;0.00;0.06
21/11/2013 14:00;0.00;0.05
21/11/2013 14:15;0.00;0.06
21/11/2013 14:30;0.00;0.05
21/11/2013 14:45;0.00;0.05
21/11/2013 15:00;0.00;0.05
21/11/2013 15:15;0.00;0.05
21/11/2013 15:30;0.00;0.05
21/11/2013 15:45;0.00;0.06
21/11/2013 16:00;0.00;0.06
21/11/2013 16:15;0.00;0.06
21/11/2013 16:30;0.00;0.05
21/11/2013 16:45;0.00;0.05
21/11/2013 17:00;0.00;0.05
